TimeEST,TemperatureF,Dew PointF,Humidity,Sea Level PressureIn,VisibilityMPH,Wind Direction,Wind SpeedMPH,Gust SpeedMPH,PrecipitationIn,Events,Conditions,WindDirDegrees,DateUTC
12:15 AM,10.4,6.8,85,30.31,10.0,NE,4.6,-,N/A,,Clear,40,2013-02-22 05:15:00
12:34 AM,8.6,6.8,92,30.30,10.0,NE,4.6,-,N/A,,Clear,50,2013-02-22 05:34:00
1:14 AM,8.6,6.8,92,30.30,10.0,ENE,5.8,-,N/A,,Clear,60,2013-02-22 06:14:00
1:34 AM,10.4,6.8,85,30.29,10.0,ENE,5.8,-,N/A,,Clear,60,2013-02-22 06:34:00
1:55 AM,10.4,8.6,92,30.30,10.0,East,5.8,-,N/A,,Mostly Cloudy,80,2013-02-22 06:55:00
2:14 AM,12.2,8.6,85,30.30,10.0,East,5.8,-,N/A,,Overcast,90,2013-02-22 07:14:00
2:35 AM,12.2,10.4,92,30.28,10.0,ENE,5.8,-,N/A,,Overcast,70,2013-02-22 07:35:00
2:55 AM,12.2,8.6,85,30.27,10.0,ENE,4.6,-,N/A,,Overcast,70,2013-02-22 07:55:00
3:14 AM,12.2,10.4,92,30.26,10.0,ENE,5.8,-,N/A,,Overcast,70,2013-02-22 08:14:00
3:35 AM,14.0,10.4,86,30.25,10.0,ENE,4.6,-,N/A,,Overcast,60,2013-02-22 08:35:00
3:55 AM,12.2,10.4,92,30.25,10.0,NE,3.5,-,N/A,,Overcast,50,2013-02-22 08:55:00
4:14 AM,14.0,12.2,93,30.24,10.0,NE,5.8,-,N/A,,Overcast,50,2013-02-22 09:14:00
4:35 AM,14.0,12.2,93,30.23,10.0,ENE,6.9,-,N/A,,Overcast,70,2013-02-22 09:35:00
4:55 AM,15.8,12.2,86,30.22,10.0,ENE,8.1,-,N/A,,Overcast,60,2013-02-22 09:55:00
5:14 AM,15.8,12.2,86,30.22,10.0,ENE,8.1,-,N/A,,Overcast,70,2013-02-22 10:14:00
5:35 AM,15.8,12.2,86,30.21,7.0,ENE,8.1,-,N/A,,Overcast,60,2013-02-22 10:35:00
5:54 AM,15.8,12.2,86,30.21,5.0,ENE,5.8,-,N/A,Snow,Light Snow,70,2013-02-22 10:54:00
6:15 AM,15.8,12.2,86,30.21,5.0,East,5.8,-,N/A,Snow,Light Snow,80,2013-02-22 11:15:00
6:34 AM,15.8,12.2,86,30.20,5.0,ENE,9.2,-,N/A,Snow,Light Snow,70,2013-02-22 11:34:00
7:14 AM,14.0,12.2,93,30.19,5.0,ENE,8.1,-,N/A,Snow,Light Snow,70,2013-02-22 12:14:00
7:55 AM,14.0,12.2,93,30.18,2.0,ENE,10.4,-,N/A,Snow,Light Snow,70,2013-02-22 12:55:00
8:14 AM,14.0,10.4,86,30.17,1.8,East,12.7,-,N/A,Snow,Light Snow,80,2013-02-22 13:14:00
8:54 AM,12.2,10.4,92,30.15,1.8,ENE,11.5,-,N/A,Snow,Light Snow,70,2013-02-22 13:54:00
9:54 AM,14.0,10.4,86,30.11,2.0,ENE,9.2,-,N/A,Snow,Light Snow,60,2013-02-22 14:54:00
10:35 AM,14.0,12.2,93,30.09,2.5,ENE,9.2,-,N/A,Snow,Light Snow,60,2013-02-22 15:35:00
10:54 AM,14.0,12.2,93,30.08,2.5,ENE,13.8,-,N/A,Snow,Light Snow,60,2013-02-22 15:54:00
11:15 AM,15.8,12.2,86,30.07,3.0,ENE,12.7,-,N/A,Snow,Light Snow,60,2013-02-22 16:15:00
11:34 AM,15.8,12.2,86,30.07,2.5,ENE,11.5,-,N/A,Snow,Light Snow,60,2013-02-22 16:34:00
11:54 AM,15.8,12.2,86,30.06,3.0,ENE,9.2,19.6,N/A,Snow,Light Snow,60,2013-02-22 16:54:00
12:15 PM,15.8,12.2,86,30.04,3.0,ENE,11.5,-,N/A,Snow,Light Snow,60,2013-02-22 17:15:00
12:34 PM,15.8,14.0,93,30.03,1.5,ENE,11.5,-,N/A,Snow,Light Snow,60,2013-02-22 17:34:00
12:55 PM,15.8,14.0,93,30.02,1.5,NE,13.8,-,N/A,Snow,Light Snow,50,2013-02-22 17:55:00
1:34 PM,17.6,15.8,93,30.00,0.5,ENE,10.4,-,N/A,Snow,Snow,60,2013-02-22 18:34:00
1:55 PM,17.6,15.8,93,29.99,0.2,ENE,11.5,-,N/A,Snow,Snow,60,2013-02-22 18:55:00
2:15 PM,17.6,15.8,93,29.99,0.5,ENE,8.1,-,N/A,Snow,Snow,60,2013-02-22 19:15:00
2:34 PM,17.6,15.8,93,29.97,0.8,ENE,12.7,-,N/A,Snow,Light Snow,60,2013-02-22 19:34:00
2:55 PM,19.4,17.6,93,29.96,1.2,NE,12.7,-,N/A,Snow,Light Snow,50,2013-02-22 19:55:00
3:14 PM,19.4,17.6,93,29.95,1.5,NE,12.7,-,N/A,Snow,Light Snow,50,2013-02-22 20:14:00
3:34 PM,19.4,17.6,93,29.94,2.5,ENE,12.7,16.1,N/A,Snow,Light Snow,60,2013-02-22 20:34:00
6:35 PM,23.0,21.2,93,29.90,3.0,East,10.4,-,N/A,Snow,Light Snow,80,2013-02-22 23:35:00
6:54 PM,23.0,21.2,93,29.89,5.0,ENE,11.5,17.3,N/A,Snow,Light Snow,70,2013-02-22 23:54:00
7:15 PM,23.0,21.2,93,29.88,5.0,ENE,10.4,16.1,N/A,Snow,Light Snow,70,2013-02-23 00:15:00
7:34 PM,24.8,21.2,86,29.88,3.0,ENE,10.4,-,N/A,Snow,Light Snow,70,2013-02-23 00:34:00
7:54 PM,24.8,21.2,86,29.87,3.0,East,9.2,-,N/A,Snow,Light Snow,80,2013-02-23 00:54:00
8:15 PM,24.8,21.2,86,29.87,2.5,East,10.4,-,N/A,Snow,Light Snow,80,2013-02-23 01:15:00
8:34 PM,24.8,21.2,86,29.86,2.5,East,9.2,16.1,N/A,Snow,Light Snow,80,2013-02-23 01:34:00
8:55 PM,24.8,23.0,93,29.85,2.5,ENE,9.2,-,N/A,Snow,Light Snow,70,2013-02-23 01:55:00
9:15 PM,24.8,23.0,93,29.85,2.0,ENE,6.9,-,N/A,Snow,Light Snow,70,2013-02-23 02:15:00
9:34 PM,24.8,23.0,93,29.84,1.8,East,8.1,-,N/A,Snow,Light Snow,80,2013-02-23 02:34:00
9:55 PM,24.8,23.0,93,29.84,2.0,East,8.1,-,N/A,Snow,Light Snow,80,2013-02-23 02:55:00
10:15 PM,24.8,23.0,93,29.83,2.0,East,6.9,-,N/A,Snow,Light Snow,80,2013-02-23 03:15:00
10:34 PM,24.8,23.0,93,29.82,4.0,East,6.9,-,N/A,Snow,Light Snow,80,2013-02-23 03:34:00
10:55 PM,24.8,23.0,93,29.81,5.0,ENE,5.8,-,N/A,Snow,Light Snow,70,2013-02-23 03:55:00
11:14 PM,24.8,23.0,93,29.81,3.0,East,5.8,-,N/A,Snow,Light Snow,80,2013-02-23 04:14:00
11:34 PM,24.8,23.0,93,29.80,2.5,East,4.6,-,N/A,Snow,Light Snow,80,2013-02-23 04:34:00
11:55 PM,24.8,24.8,100,29.80,4.0,East,4.6,-,N/A,Snow,Light Snow,80,2013-02-23 04:55:00